Wind_Speed
9 8 8 11 16 18 17 16 15 15 16 16 16 16 16 17 17 17 17 15 14 14 13 13 13 14 14 14 14 13 12 12 12 12 11 11 11 10 11 12 13 13
10 10 8 10 14 18 18 16 16 17 17 17 16 15 16 17 17 17 16 15 14 14 14 14 15 15 14 13 12 11 11 11 11 11 11 10 11 11 10 11 12 12
12 12 11 10 12 17 18 18 19 19 19 18 17 16 16 17 17 17 16 15 15 14 15 15 15 15 13 12 11 11 11 11 11 11 10 10 11 11 10 10 11 12
13 13 13 12 14 17 20 20 20 21 21 19 17 16 17 17 18 17 17 16 16 16 16 15 15 14 13 12 12 12 12 12 11 10 10 10 10 10 10 11 11 12
13 15 16 15 16 19 21 21 21 21 22 20 18 18 18 17 17 17 17 16 17 17 17 15 14 14 13 13 12 12 12 11 11 10 10 9 9 9 10 11 11 11
14 17 17 16 18 20 22 23 22 22 22 21 18 18 18 17 16 17 17 17 17 16 15 14 13 13 13 13 13 13 12 11 11 11 10 10 9 10 10 10 10 10
15 18 17 17 19 20 22 23 23 24 25 23 21 20 18 17 16 17 17 16 16 14 14 13 12 12 13 13 12 12 12 11 11 11 10 10 10 10 10 9 9 9
17 20 20 19 21 20 21 23 23 24 25 23 23 22 19 17 18 18 17 16 15 15 15 14 13 13 13 12 11 11 11 11 10 11 11 10 11 10 9 8 8 9
18 21 22 22 21 20 21 21 22 23 22 20 21 21 20 19 20 20 19 17 16 16 16 15 15 15 14 13 12 12 11 10 10 11 12 11 11 11 9 8 8 9
20 22 23 21 20 20 20 21 24 24 20 18 19 18 18 19 21 21 19 18 18 17 15 15 15 15 14 13 12 11 11 11 12 12 12 12 12 12 11 9 9 10
24 24 21 19 20 21 21 22 23 22 19 19 19 17 17 19 20 20 19 19 18 16 15 14 14 13 12 12 11 12 13 14 14 13 13 14 14 14 13 11 10 10
25 23 20 20 21 20 20 20 19 18 19 20 20 18 18 19 20 19 19 19 18 17 15 14 13 13 12 12 13 14 15 15 15 14 13 14 14 14 13 12 11 10
23 22 20 20 21 19 19 20 19 19 20 20 20 19 19 20 19 19 19 19 18 18 17 16 15 14 13 13 14 15 15 14 14 14 14 14 13 13 13 12 11 9
23 22 21 21 21 20 20 21 21 21 21 20 20 19 20 20 19 19 19 19 19 19 18 17 16 15 14 14 14 15 14 13 13 13 14 13 12 11 10 9 9 8
23 22 22 23 22 21 22 22 23 21 20 19 19 19 20 20 20 20 19 19 20 20 19 18 17 16 15 15 15 14 13 12 12 11 11 11 10 8 7 7 7 6
22 21 22 23 21 22 23 24 24 21 19 18 18 19 20 20 21 21 20 20 21 21 20 19 17 16 16 15 14 13 12 12 11 10 10 9 8 8 7 7 7 7
22 21 21 21 19 20 22 24 23 21 20 19 19 19 20 20 20 20 20 21 21 21 21 19 18 17 16 15 15 14 13 12 11 10 9 9 9 8 9 8 8 9
22 21 20 19 20 21 23 24 23 22 22 21 19 19 19 19 18 18 19 21 21 21 21 20 19 18 17 16 16 15 14 13 12 11 10 10 9 9 8 7 7 8
18 20 20 20 21 23 23 22 21 21 22 21 20 19 18 17 17 17 18 20 21 21 22 22 21 19 18 18 18 17 15 14 13 12 11 11 10 9 8 7 6 6
17 20 22 22 22 22 22 22 20 20 20 19 18 18 17 17 17 17 18 19 20 21 22 22 22 21 20 20 19 18 18 17 16 15 14 13 12 11 10 9 7 6
17 19 21 21 21 21 22 22 23 22 20 18 18 17 17 17 17 17 18 20 20 20 21 21 21 21 21 21 20 19 18 18 19 18 18 17 15 14 13 12 10 9
14 17 19 20 20 21 22 24 25 24 21 19 18 18 18 17 17 17 18 20 21 21 21 21 22 22 21 21 21 20 19 19 19 20 20 19 18 16 14 13 13 13
13 15 19 21 22 22 22 23 24 24 23 20 19 19 19 19 19 19 18 18 19 19 19 20 20 20 20 20 21 21 21 22 21 21 22 21 20 18 17 16 17 17
15 14 16 20 21 22 23 24 24 24 23 22 21 20 20 20 19 20 20 19 19 19 18 17 17 17 18 19 19 20 22 23 24 23 22 21 21 21 20 20 20 21
14 16 18 19 20 21 23 25 25 24 22 22 22 22 23 23 23 23 24 23 23 22 21 20 19 19 19 20 20 21 23 25 27 26 24 23 24 24 23 23 23 25
10 15 18 21 22 20 18 21 23 21 20 21 23 25 26 27 26 26 26 24 25 26 26 26 25 25 25 25 25 25 26 27 28 27 26 26 27 26 25 25 25 25
Wind_Direction
220 226 246 244 237 229 212 195 197 205 204 208 210 209 211 209 206 204 202 198 195 195 195 197 202 206 207 208 207 202 200 201 205 211 211 209 214 218 216 213 212 210
225 218 221 235 236 231 220 199 194 203 206 208 210 211 213 210 206 205 201 197 195 196 198 200 206 210 211 211 207 203 202 202 206 211 208 204 209 213 214 214 213 211
227 219 208 216 227 228 221 205 196 203 207 207 209 212 212 209 204 203 201 196 195 199 204 206 208 210 211 211 210 208 206 205 205 208 206 202 205 208 205 208 212 211
228 217 204 205 213 218 218 209 201 203 205 205 208 211 209 204 199 199 201 198 197 202 207 208 208 210 211 211 210 209 208 206 204 204 203 201 204 204 199 202 207 207
228 213 205 205 206 214 219 212 204 204 204 203 205 207 205 200 195 197 200 203 204 204 204 203 202 204 206 206 207 206 205 204 204 203 201 203 204 201 197 200 203 202
223 212 207 206 206 213 220 214 206 205 203 202 203 203 201 196 194 197 200 205 208 204 198 193 190 190 193 197 199 200 201 202 204 204 203 203 203 199 197 199 201 202
211 205 203 208 210 213 217 214 209 206 203 200 198 197 195 192 192 195 200 204 206 202 194 186 178 177 183 190 193 195 197 200 204 206 204 203 202 201 200 199 200 199
206 204 202 210 216 215 218 217 213 213 209 202 195 188 185 188 191 194 199 200 199 198 191 177 167 171 180 184 187 191 195 197 202 205 205 204 203 203 201 200 200 197
204 204 202 208 217 219 220 217 215 217 215 208 200 185 177 183 191 195 196 193 190 190 184 171 165 170 177 180 182 186 187 188 192 197 199 200 200 201 200 201 199 195
199 201 203 209 218 221 218 214 214 214 206 201 198 184 175 184 192 194 192 186 184 181 174 168 167 169 173 178 180 177 173 177 184 186 189 190 192 196 197 199 199 197
197 199 205 215 223 222 216 212 212 206 194 191 190 181 180 189 192 191 186 181 177 171 166 168 169 171 177 181 180 175 173 179 183 182 180 181 185 191 192 195 199 198
200 197 202 217 226 223 215 212 207 195 191 193 189 183 184 189 189 186 182 177 171 166 167 171 176 181 186 186 184 182 183 183 182 178 175 178 184 189 190 192 196 196
203 196 200 215 223 220 211 206 200 195 197 196 188 183 185 188 187 184 181 176 170 170 172 176 183 189 192 191 189 189 190 187 181 176 174 180 187 188 189 192 194 197
200 195 199 207 214 215 209 202 199 198 196 193 187 184 185 187 188 186 184 179 175 176 177 180 187 192 194 195 194 195 195 191 185 180 178 184 190 188 189 194 198 201
199 197 201 205 207 208 204 197 195 194 190 187 188 187 186 187 188 189 187 183 181 181 182 186 191 194 195 196 198 200 199 194 192 188 183 186 190 185 183 190 200 208
204 204 206 207 206 202 196 189 189 190 188 185 185 185 187 188 189 189 187 186 186 186 187 192 194 194 196 197 199 203 203 201 202 197 189 190 189 181 179 184 192 203
208 209 208 206 200 195 189 183 184 190 190 186 184 184 188 190 190 190 189 190 191 190 191 196 196 196 197 198 200 203 202 204 207 201 196 196 193 189 189 192 197 202
210 209 205 203 195 189 185 180 183 191 192 191 192 192 194 193 191 192 194 196 196 194 194 198 200 200 199 198 200 202 202 204 204 200 199 200 200 201 203 207 217 219
208 206 205 203 192 185 183 180 183 193 196 196 200 202 202 200 197 197 199 201 200 198 199 202 204 203 202 200 201 202 201 202 201 198 199 201 203 205 209 216 227 231
204 205 204 201 192 186 187 188 190 196 199 200 203 207 207 206 206 204 205 208 206 203 203 206 208 207 206 205 205 205 205 206 205 201 200 203 207 207 212 219 226 234
204 203 200 198 194 192 196 200 200 200 200 200 200 201 202 204 206 205 206 210 212 211 210 212 214 213 213 212 210 209 212 215 215 212 207 207 210 212 216 221 225 236
207 206 205 201 197 198 202 204 201 197 197 197 196 196 197 197 199 201 204 208 212 214 215 216 218 220 220 220 217 214 216 220 224 224 220 217 217 220 225 230 233 240
211 211 211 206 201 204 208 205 198 193 192 191 190 192 194 195 196 198 199 204 209 214 217 219 222 224 225 228 227 223 222 225 229 232 230 226 224 226 232 237 240 243
217 215 215 214 211 210 209 206 201 195 190 188 189 194 197 199 200 197 193 196 204 209 215 220 224 226 228 231 232 230 229 232 236 239 238 234 234 238 242 244 246 249
218 212 212 217 220 219 216 216 213 203 193 190 189 191 193 196 198 198 195 198 206 210 211 214 217 221 226 230 232 233 235 238 241 245 247 247 248 250 251 254 258 258
216 210 210 212 212 213 216 220 222 216 208 204 200 197 199 202 204 207 209 210 216 220 220 221 223 225 229 233 236 238 241 243 246 249 252 254 254 253 255 262 267 263
Height
3122 3122 3124 3124 3124 3124 3124 3123 3125 3127 3129 3130 3131 3133 3134 3135 3136 3137 3138 3139 3140 3142 3143 3144 3145 3147 3148 3149 3150 3150 3151 3152 3152 3153 3154 3154 3155 3156 3157 3157 3158 3159
3120 3120 3120 3122 3123 3124 3125 3123 3123 3126 3127 3129 3130 3132 3133 3134 3135 3136 3138 3139 3140 3141 3142 3143 3145 3146 3147 3148 3149 3149 3150 3151 3152 3152 3153 3154 3155 3155 3156 3157 3157 3158
3117 3117 3118 3119 3120 3122 3124 3123 3123 3124 3126 3127 3129 3130 3132 3133 3134 3135 3137 3139 3140 3141 3142 3143 3144 3146 3146 3147 3148 3148 3149 3150 3151 3152 3152 3153 3154 3155 3156 3156 3157 3158
3114 3115 3116 3116 3117 3120 3122 3122 3121 3122 3124 3126 3127 3129 3130 3132 3133 3135 3136 3138 3139 3140 3141 3142 3144 3145 3145 3146 3147 3148 3149 3149 3150 3151 3152 3153 3154 3154 3155 3156 3156 3157
3112 3113 3113 3114 3115 3117 3119 3119 3120 3121 3122 3123 3125 3127 3129 3131 3132 3134 3135 3137 3138 3140 3141 3142 3143 3144 3144 3145 3146 3147 3148 3149 3150 3150 3151 3152 3153 3154 3155 3155 3156 3156
3110 3111 3111 3112 3113 3115 3116 3117 3118 3119 3121 3121 3123 3125 3127 3129 3131 3133 3135 3136 3137 3139 3140 3141 3142 3143 3143 3144 3145 3146 3147 3148 3149 3150 3151 3152 3153 3153 3154 3155 3155 3156
3107 3108 3109 3110 3111 3112 3113 3114 3115 3116 3117 3118 3120 3124 3126 3128 3130 3132 3134 3135 3137 3138 3139 3140 3141 3142 3143 3143 3144 3145 3146 3147 3148 3149 3150 3151 3152 3153 3154 3154 3155 3155
3103 3104 3106 3107 3108 3110 3111 3112 3113 3113 3114 3116 3118 3121 3124 3127 3129 3130 3132 3134 3136 3137 3138 3139 3141 3142 3142 3143 3143 3144 3145 3146 3147 3148 3149 3150 3151 3152 3153 3153 3154 3154
3100 3101 3102 3103 3106 3108 3110 3111 3111 3112 3114 3117 3119 3120 3122 3126 3128 3129 3131 3134 3135 3137 3138 3139 3140 3141 3142 3142 3143 3143 3144 3146 3147 3148 3149 3150 3151 3152 3152 3153 3153 3153
3096 3098 3098 3099 3103 3106 3108 3109 3109 3111 3113 3116 3119 3121 3122 3125 3127 3129 3131 3133 3135 3136 3137 3138 3139 3140 3141 3141 3142 3143 3144 3145 3146 3147 3148 3149 3150 3151 3151 3152 3152 3152
3094 3095 3096 3098 3102 3105 3106 3107 3108 3110 3112 3115 3118 3121 3122 3124 3126 3128 3130 3132 3134 3135 3137 3138 3139 3140 3140 3141 3142 3143 3144 3145 3146 3147 3148 3149 3149 3150 3150 3151 3152 3152
3094 3094 3095 3099 3101 3103 3104 3105 3106 3109 3111 3113 3117 3120 3121 3123 3126 3127 3129 3131 3133 3135 3136 3138 3139 3139 3140 3141 3142 3143 3144 3144 3145 3146 3147 3148 3148 3149 3149 3150 3151 3151
3096 3094 3095 3098 3100 3102 3103 3104 3106 3108 3110 3113 3116 3118 3120 3123 3125 3126 3128 3130 3132 3134 3136 3137 3138 3139 3140 3141 3141 3142 3143 3144 3145 3146 3147 3147 3147 3148 3149 3150 3150 3151
3095 3094 3095 3097 3099 3101 3102 3104 3106 3108 3110 3113 3115 3117 3120 3122 3124 3125 3127 3130 3132 3133 3135 3137 3138 3139 3140 3140 3140 3141 3142 3143 3144 3146 3146 3147 3147 3148 3149 3150 3150 3151
3093 3093 3094 3096 3098 3099 3101 3104 3106 3108 3110 3113 3115 3117 3119 3120 3122 3125 3127 3129 3131 3133 3135 3136 3137 3138 3139 3139 3140 3140 3141 3143 3144 3145 3146 3147 3148 3149 3149 3150 3150 3151
3092 3093 3094 3096 3097 3099 3102 3104 3105 3108 3110 3112 3114 3116 3118 3119 3122 3124 3127 3129 3131 3132 3134 3135 3137 3137 3138 3139 3139 3140 3141 3142 3143 3144 3145 3146 3147 3148 3149 3150 3150 3150
3092 3093 3095 3096 3098 3099 3102 3104 3106 3108 3110 3112 3114 3115 3117 3119 3121 3123 3125 3128 3130 3132 3133 3135 3136 3137 3137 3138 3139 3140 3141 3142 3143 3144 3145 3145 3146 3147 3148 3148 3149 3149
3091 3092 3094 3096 3098 3099 3101 3103 3105 3108 3110 3112 3113 3114 3116 3118 3120 3122 3124 3127 3129 3131 3133 3134 3135 3136 3137 3138 3138 3139 3140 3141 3142 3143 3144 3144 3145 3146 3146 3147 3148 3148
3090 3092 3094 3095 3097 3099 3101 3102 3105 3107 3109 3111 3113 3114 3115 3118 3120 3122 3124 3126 3128 3130 3132 3133 3135 3135 3136 3137 3138 3139 3140 3140 3141 3142 3143 3143 3144 3145 3145 3146 3146 3147
3090 3091 3093 3095 3097 3099 3100 3102 3105 3107 3109 3110 3112 3113 3114 3117 3119 3121 3123 3125 3127 3129 3130 3132 3133 3134 3135 3136 3136 3137 3138 3139 3140 3140 3141 3142 3142 3143 3144 3144 3145 3145
3089 3091 3093 3094 3097 3099 3100 3102 3104 3105 3107 3109 3110 3111 3113 3115 3117 3119 3121 3123 3125 3127 3129 3130 3131 3132 3134 3134 3135 3137 3138 3138 3138 3139 3139 3140 3140 3141 3142 3143 3143 3144
3090 3091 3092 3094 3096 3098 3099 3100 3102 3103 3105 3107 3109 3110 3111 3113 3115 3118 3120 3122 3124 3125 3127 3128 3130 3131 3132 3133 3134 3135 3136 3137 3137 3137 3138 3138 3139 3140 3141 3141 3142 3142
3090 3091 3092 3093 3095 3097 3098 3099 3100 3102 3103 3105 3107 3109 3110 3111 3113 3116 3118 3120 3122 3124 3125 3127 3128 3129 3130 3131 3132 3134 3135 3135 3135 3135 3136 3137 3138 3139 3139 3140 3140 3140
3090 3090 3091 3092 3094 3096 3098 3099 3100 3101 3102 3103 3106 3108 3109 3110 3112 3114 3116 3119 3120 3122 3124 3125 3126 3127 3128 3129 3130 3131 3132 3133 3133 3133 3134 3135 3136 3137 3137 3137 3137 3137
3090 3091 3091 3092 3093 3094 3096 3097 3098 3101 3102 3103 3104 3106 3107 3109 3110 3112 3114 3116 3118 3120 3121 3122 3124 3124 3125 3126 3127 3128 3129 3130 3131 3131 3132 3133 3133 3134 3134 3134 3134 3134
3091 3091 3091 3092 3093 3093 3094 3095 3097 3099 3101 3102 3103 3104 3106 3107 3109 3110 3111 3114 3116 3117 3117 3119 3120 3121 3123 3123 3124 3125 3126 3127 3127 3128 3129 3129 3130 3130 3131 3131 3130 3130